TimePDT,TemperatureF,Dew PointF,Humidity,Sea Level PressureIn,VisibilityMPH,Wind Direction,Wind SpeedMPH,Gust SpeedMPH,PrecipitationIn,Events,Conditions,WindDirDegrees,DateUTC
12:56 AM,50.0,46.9,89,30.14,10.0,Calm,Calm,-,N/A,,Clear,0,2013-10-25 07:56:00
1:56 AM,51.1,46.9,86,30.15,10.0,Calm,Calm,-,N/A,,Clear,0,2013-10-25 08:56:00
2:56 AM,48.9,45.0,86,30.16,10.0,Calm,Calm,-,N/A,,Clear,0,2013-10-25 09:56:00
3:29 AM,48.2,46.4,93,30.15,10.0,Calm,Calm,-,N/A,,Mostly Cloudy,0,2013-10-25 10:29:00
3:56 AM,50.0,46.0,86,30.16,10.0,Calm,Calm,-,N/A,,Overcast,0,2013-10-25 10:56:00
4:20 AM,50.0,46.4,87,30.15,10.0,Calm,Calm,-,N/A,,Overcast,0,2013-10-25 11:20:00
4:56 AM,52.0,46.9,83,30.16,10.0,Calm,Calm,-,N/A,,Overcast,0,2013-10-25 11:56:00
5:56 AM,53.1,48.0,83,30.17,10.0,Calm,Calm,-,N/A,,Overcast,0,2013-10-25 12:56:00
6:56 AM,54.0,48.0,80,30.17,10.0,Calm,Calm,-,N/A,,Overcast,0,2013-10-25 13:56:00
7:16 AM,53.6,48.2,82,30.16,10.0,Calm,Calm,-,N/A,,Overcast,0,2013-10-25 14:16:00
7:56 AM,54.0,48.0,80,30.18,9.0,ESE,3.5,-,N/A,,Overcast,120,2013-10-25 14:56:00
8:56 AM,54.0,48.0,80,30.19,7.0,Calm,Calm,-,N/A,,Overcast,0,2013-10-25 15:56:00
9:56 AM,54.0,48.0,80,30.19,7.0,Calm,Calm,-,N/A,,Mostly Cloudy,0,2013-10-25 16:56:00
10:03 AM,55.4,48.2,77,30.18,7.0,Calm,Calm,-,N/A,,Scattered Clouds,0,2013-10-25 17:03:00
10:56 AM,59.0,48.0,67,30.18,8.0,Calm,Calm,-,N/A,,Scattered Clouds,0,2013-10-25 17:56:00
11:56 AM,62.1,48.9,62,30.18,8.0,North,5.8,-,N/A,,Clear,360,2013-10-25 18:56:00
12:56 PM,63.0,48.9,60,30.17,9.0,North,6.9,-,N/A,,Clear,350,2013-10-25 19:56:00
1:56 PM,64.9,48.9,56,30.14,10.0,North,9.2,-,N/A,,Clear,350,2013-10-25 20:56:00
2:56 PM,66.9,48.0,51,30.12,10.0,NNW,8.1,-,N/A,,Clear,340,2013-10-25 21:56:00
3:56 PM,64.9,51.1,61,30.12,10.0,NW,8.1,-,N/A,,Clear,320,2013-10-25 22:56:00
4:56 PM,64.0,51.1,63,30.11,10.0,NNW,6.9,-,N/A,,Clear,330,2013-10-25 23:56:00
5:56 PM,63.0,50.0,63,30.10,10.0,North,6.9,-,N/A,,Clear,350,2013-10-26 00:56:00
6:56 PM,61.0,50.0,67,30.11,10.0,Calm,Calm,-,N/A,,Clear,0,2013-10-26 01:56:00
7:56 PM,61.0,51.1,70,30.12,10.0,Calm,Calm,-,N/A,,Clear,0,2013-10-26 02:56:00
8:56 PM,60.1,51.1,72,30.12,10.0,Calm,Calm,-,N/A,,Clear,0,2013-10-26 03:56:00
9:56 PM,57.0,48.9,74,30.13,10.0,Calm,Calm,-,N/A,,Clear,0,2013-10-26 04:56:00
10:56 PM,55.9,48.0,75,30.14,10.0,Calm,Calm,-,N/A,,Clear,0,2013-10-26 05:56:00
11:56 PM,55.0,48.0,77,30.14,10.0,Calm,Calm,-,N/A,,Clear,0,2013-10-26 06:56:00